Retour au catalogue

ARIANE 6004 ULPM

ActifMEO
NORAD 67161·ROCKET BODY·🇪🇺 EU
Ce nom de satellite n'a pas encore été confirmé par des sources officielles.

Lancé Dec 17, 2025 depuis Guiana Space Centre

Loading…

Prochains Passages (prochaines 24 heures)

TLE

FraisSource: Space-Track

Époque: Sep 12, 2026, 23:11 UTC

1 67161U 25302B   26255.96663635  .00000006  00000-0  00000-0 0  9993
2 67161  54.3992  99.3160 0004231 268.9990  91.0374  1.72972845  4683

Suivez ARIANE 6004 ULPM en temps réel avec AllMySat

Download on the App Store